| time (UTC) | temp F | wind direction | speed knots | gust knots | rain 1hr in | rain 24hr in | rain mn in | humidity % | barometer mb |
| 20260504081824 | 74 | 30 | 2.6 | 3.5 | 0.00 | 0.00 | 0.00 | 90 | 1014.0 |
| 20260504080823 | 70 | 30 | 2.6 | 3.5 | 0.00 | 0.00 | 0.00 | 89 | 1014.0 |
| 20260504045812 | 73 | 25 | 3.5 | 5.2 | 0.00 | 0.00 | 0.00 | 82 | 1015.0 |
| 20260504044811 | 74 | 25 | 3.5 | 5.2 | 0.00 | 0.00 | 0.00 | 82 | 1015.0 |
| 20260504043811 | 75 | 25 | 3.5 | 5.2 | 0.00 | 0.00 | 0.00 | 82 | 1015.0 |
| 20260504042810 | 72 | 39 | 3.5 | 6.1 | 0.00 | 0.00 | 0.00 | 75 | 1015.0 |
| 20260504041810 | 73 | 39 | 3.5 | 6.1 | 0.00 | 0.00 | 0.00 | 75 | 1015.0 |
| 20260504040809 | 74 | 39 | 3.5 | 6.1 | 0.00 | 0.00 | 0.00 | 75 | 1015.0 |
| 20260504035808 | 75 | 39 | 3.5 | 6.1 | 0.00 | 0.00 | 0.00 | 75 | 1015.0 |
| 20260504034808 | 76 | 39 | 3.5 | 6.1 | 0.00 | 0.00 | 0.00 | 75 | 1015.0 |
| 20260504033807 | 77 | 39 | 3.5 | 6.1 | 0.00 | 0.00 | 0.00 | 75 | 1015.0 |
| 20260504032807 | 78 | 36 | 3.5 | 6.1 | 0.00 | 0.00 | 0.00 | 75 | 1014.0 |
| 20260504031806 | 74 | 36 | 3.5 | 6.1 | 0.00 | 0.00 | 0.00 | 73 | 1014.0 |
| 20260504030806 | 75 | 36 | 3.5 | 6.1 | 0.00 | 0.00 | 0.00 | 73 | 1014.0 |
| 20260504025805 | 76 | 36 | 3.5 | 6.1 | 0.00 | 0.00 | 0.00 | 73 | 1014.0 |
| 20260504024804 | 77 | 36 | 3.5 | 6.1 | 0.00 | 0.00 | 0.00 | 73 | 1014.0 |
| 20260504023804 | 78 | 36 | 3.5 | 6.1 | 0.00 | 0.00 | 0.00 | 73 | 1014.0 |
| 20260504022803 | 77 | 29 | 3.5 | 6.1 | 0.00 | 0.00 | 0.00 | 62 | 1012.0 |
| 20260504021803 | 78 | 29 | 3.5 | 6.1 | 0.00 | 0.00 | 0.00 | 62 | 1012.0 |
| 20260504020802 | 79 | 29 | 3.5 | 6.1 | 0.00 | 0.00 | 0.00 | 62 | 1012.0 |
| 20260504015802 | 80 | 29 | 3.5 | 6.1 | 0.00 | 0.00 | 0.00 | 62 | 1012.0 |
| 20260504014801 | 81 | 29 | 3.5 | 6.1 | 0.00 | 0.00 | 0.00 | 62 | 1012.0 |
| 20260504013800 | 82 | 29 | 3.5 | 6.1 | 0.00 | 0.00 | 0.00 | 62 | 1012.0 |
| 20260504012800 | 83 | 32 | 2.6 | 3.5 | 0.00 | 0.00 | 0.00 | 62 | 1011.0 |
| 20260504011759 | 84 | 32 | 2.6 | 3.5 | 0.00 | 0.00 | 0.00 | 62 | 1011.0 |
| 20260504010759 | 92 | 90 | 7.8 | 0.0 | 0.00 | 0.00 | 0.00 | 40 | 1011.0 |
| 20260504005758 | 92 | 90 | 7.8 | 0.0 | 0.00 | 0.00 | 0.00 | 40 | 1011.0 |
| 20260504004758 | 92 | 90 | 7.8 | 0.0 | 0.00 | 0.00 | 0.00 | 40 | 1011.0 |
| 20260504003757 | 92 | 90 | 7.8 | 0.0 | 0.00 | 0.00 | 0.00 | 40 | 1011.0 |
| 20260504002756 | 92 | 90 | 7.8 | 0.0 | 0.00 | 0.00 | 0.00 | 40 | 1010.0 |
| 20260504001756 | 92 | 90 | 7.8 | 0.0 | 0.00 | 0.00 | 0.00 | 40 | 1010.0 |
| 20260504000755 | 92 | 90 | 7.8 | 0.0 | 0.00 | 0.00 | 0.00 | 40 | 1010.0 |
| 20260503235755 | 94 | 70 | 9.6 | 0.0 | 0.00 | 0.00 | 0.00 | 38 | 1010.0 |
| 20260503234754 | 94 | 70 | 9.6 | 0.0 | 0.00 | 0.00 | 0.00 | 38 | 1010.0 |
| 20260503233754 | 94 | 70 | 9.6 | 0.0 | 0.00 | 0.00 | 0.00 | 38 | 1010.0 |
| 20260503232753 | 94 | 70 | 9.6 | 0.0 | 0.00 | 0.00 | 0.00 | 38 | 1009.0 |
| 20260503231752 | 94 | 70 | 9.6 | 0.0 | 0.00 | 0.00 | 0.00 | 38 | 1009.0 |
| 20260503230752 | 94 | 70 | 9.6 | 0.0 | 0.00 | 0.00 | 0.00 | 38 | 1009.0 |
| 20260503225751 | 96 | 100 | 11.3 | 0.0 | 0.00 | 0.00 | 0.00 | 36 | 1009.0 |
| 20260503224751 | 96 | 100 | 11.3 | 0.0 | 0.00 | 0.00 | 0.00 | 36 | 1009.0 |
| 20260503223750 | 96 | 100 | 11.3 | 0.0 | 0.00 | 0.00 | 0.00 | 36 | 1009.0 |
| 20260503222750 | 96 | 100 | 11.3 | 0.0 | 0.00 | 0.00 | 0.00 | 36 | 1008.0 |
| 20260503221749 | 96 | 100 | 11.3 | 0.0 | 0.00 | 0.00 | 0.00 | 36 | 1008.0 |
| 20260503220748 | 96 | 100 | 11.3 | 0.0 | 0.00 | 0.00 | 0.00 | 36 | 1008.0 |
| 20260503215748 | 96 | 70 | 9.6 | 0.0 | 0.00 | 0.00 | 0.00 | 32 | 1008.0 |
| 20260503214747 | 96 | 70 | 9.6 | 0.0 | 0.00 | 0.00 | 0.00 | 32 | 1008.0 |
| 20260503213747 | 96 | 70 | 9.6 | 0.0 | 0.00 | 0.00 | 0.00 | 32 | 1008.0 |
| 20260503212746 | 96 | 70 | 9.6 | 0.0 | 0.00 | 0.00 | 0.00 | 32 | 1009.0 |
| 20260503211746 | 96 | 70 | 9.6 | 0.0 | 0.00 | 0.00 | 0.00 | 32 | 1009.0 |
| 20260503210745 | 101 | 90 | 9.6 | 0.0 | 0.00 | 0.00 | 0.00 | 24 | 1009.0 |
| 20260503205744 | 101 | 90 | 9.6 | 0.0 | 0.00 | 0.00 | 0.00 | 24 | 1009.0 |
| 20260503204744 | 101 | 90 | 9.6 | 0.0 | 0.00 | 0.00 | 0.00 | 24 | 1009.0 |
| 20260503203743 | 101 | 90 | 9.6 | 0.0 | 0.00 | 0.00 | 0.00 | 24 | 1009.0 |
| 20260503202743 | 101 | 90 | 9.6 | 0.0 | 0.00 | 0.00 | 0.00 | 24 | 1010.0 |
| 20260503201742 | 101 | 90 | 9.6 | 0.0 | 0.00 | 0.00 | 0.00 | 24 | 1010.0 |
| 20260503200741 | 101 | 90 | 9.6 | 0.0 | 0.00 | 0.00 | 0.00 | 24 | 1009.0 |
| 20260503195741 | 100 | 50 | 9.6 | 0.0 | 0.00 | 0.00 | 0.00 | 27 | 1009.0 |
| 20260503194740 | 100 | 50 | 9.6 | 0.0 | 0.00 | 0.00 | 0.00 | 27 | 1009.0 |
| 20260503193740 | 100 | 50 | 9.6 | 0.0 | 0.00 | 0.00 | 0.00 | 27 | 1009.0 |
| 20260503192739 | 100 | 50 | 9.6 | 0.0 | 0.00 | 0.00 | 0.00 | 27 | 1010.0 |
| 20260503191739 | 100 | 50 | 9.6 | 0.0 | 0.00 | 0.00 | 0.00 | 27 | 1010.0 |
| 20260503190738 | 100 | 50 | 9.6 | 0.0 | 0.00 | 0.00 | 0.00 | 27 | 1010.0 |
| 20260503185737 | 98 | 50 | 9.6 | 0.0 | 0.00 | 0.00 | 0.00 | 32 | 1010.0 |
| 20260503184737 | 98 | 50 | 9.6 | 0.0 | 0.00 | 0.00 | 0.00 | 32 | 1010.0 |
| 20260503183736 | 98 | 50 | 9.6 | 0.0 | 0.00 | 0.00 | 0.00 | 32 | 1010.0 |
| 20260503182735 | 98 | 50 | 9.6 | 0.0 | 0.00 | 0.00 | 0.00 | 32 | 1012.0 |
| 20260503181736 | 98 | 50 | 9.6 | 0.0 | 0.00 | 0.00 | 0.00 | 32 | 1012.0 |
| 20260503180734 | 98 | 50 | 9.6 | 0.0 | 0.00 | 0.00 | 0.00 | 32 | 1012.0 |
| 20260503175734 | 98 | 70 | 9.6 | 0.0 | 0.00 | 0.00 | 0.00 | 34 | 1012.0 |
| 20260503174733 | 98 | 70 | 9.6 | 0.0 | 0.00 | 0.00 | 0.00 | 34 | 1012.0 |
| 20260503173732 | 98 | 70 | 9.6 | 0.0 | 0.00 | 0.00 | 0.00 | 34 | 1012.0 |
| 20260503172732 | 98 | 70 | 9.6 | 0.0 | 0.00 | 0.00 | 0.00 | 34 | 1013.0 |
| 20260503171731 | 98 | 70 | 9.6 | 0.0 | 0.00 | 0.00 | 0.00 | 34 | 1013.0 |
| 20260503170731 | 94 | 30 | 5.2 | 0.0 | 0.00 | 0.00 | 0.00 | 43 | 1013.0 |
| 20260503150724 | 87 | 0 | 0.0 | 0.0 | 0.00 | 0.00 | 0.00 | 55 | 1015.0 |
| 20260503130716 | 81 | 41 | 2.6 | 3.5 | 0.00 | 0.00 | 0.00 | 69 | 1015.0 |
| 20260503110709 | 71 | 28 | 3.5 | 4.3 | 0.00 | 0.00 | 0.00 | 79 | 1013.0 |